Flag for Finland Weather past 2 weeks in Kotka, Finland

Now
30 °F

Partly sunny.


Feels Like: 22 °F
Forecast: 29 / 33 °F
Wind: 9 mph from South

Location: Utti

Current Time: Jan 27, 2015 at 11:08:29 AM

Latest Report: Jan 27, 2015 at 10:20 AM


Visibility: N/A

Pressure: 29.77 "Hg

Humidity: 93%

Dew point: 28 °F

Location of KotkaLocation

Historic Weather in Kotka — Graph

°F

Kotka temperature yesterday

Maximum temperature yesterday: 32 °F (at 12:50 PM)
Minimum temperature yesterday: 27 °F (at 12:20 AM)
Average temperature yesterday: 29 °F

Past Weeks' High & Low Weather Summary

 TemperatureHumidityPressure
High37 °F (Jan 16, 9:20 PM)100% (Jan 13, 6:50 AM)30.48 "Hg (Jan 13, 6:50 AM)
Low0 °F (Jan 12, 10:20 PM)72% (Jan 22, 10:20 AM)28.91 "Hg (Jan 13, 5:20 AM)
Average23 °F91%29.84 "Hg
* Reported Jan 12 9:20 AM — Jan 27 9:50 AM, Kotka, Weather by CustomWeather, © 2014

Note: Actual official high and low records may vary slightly from our data, if they occured in-between our weather recording intervals... More about our weather records

Advertising

Kotka weather history for previous 24 hours

 ConditionsComfort  
Time TempWeatherWind HumidityBarometerVisibility
9:50 AM
Jan 27
30 °FLight snow. Partly sunny.7 mph93%29.77 "HgN/A
9:20 AM30 °FLight snow. Partly sunny.7 mph93%29.77 "HgN/A
8:50 AM30 °FLight snow. Partly sunny.7 mph93%29.77 "HgN/A
8:20 AM30 °FLight snow. Passing clouds.7 mph86%29.77 "HgN/A
7:50 AM30 °FLight snow. Passing clouds.7 mph86%29.77 "HgN/A
7:20 AM30 °FLight snow. Passing clouds.7 mph86%29.80 "HgN/A
6:50 AM28 °FOvercast.6 mph93%29.80 "HgN/A
5:50 AM30 °FOvercast.6 mph86%29.80 "HgN/A
5:20 AM30 °FOvercast.6 mph86%29.80 "HgN/A
4:50 AM30 °FOvercast.7 mph80%29.80 "HgN/A
4:20 AM30 °FOvercast.9 mph80%29.80 "HgN/A
3:50 AM30 °FOvercast.8 mph80%29.83 "HgN/A
3:20 AM30 °FOvercast.8 mph80%29.83 "HgN/A
2:50 AM30 °FOvercast.8 mph80%29.83 "HgN/A
2:20 AM30 °FOvercast.8 mph80%29.83 "HgN/A
1:50 AM30 °FOvercast.8 mph80%29.86 "HgN/A
1:20 AM30 °FOvercast.13 mph80%29.86 "HgN/A
12:50 AM30 °FOvercast.9 mph80%29.86 "HgN/A
12:20 AM30 °FOvercast.9 mph80%29.86 "HgN/A
11:50 PM
Jan 26
30 °FOvercast.10 mph80%29.86 "HgN/A
10:50 PM30 °FPassing clouds.8 mph80%29.89 "HgN/A
10:20 PM30 °FPassing clouds.7 mph86%29.89 "HgN/A
9:50 PM30 °FPassing clouds.8 mph86%29.89 "HgN/A
9:20 PM30 °FPassing clouds.8 mph86%29.89 "HgN/A
8:50 PM30 °FPassing clouds.8 mph86%29.89 "HgN/A
8:20 PM30 °FPassing clouds.7 mph86%29.92 "HgN/A
7:50 PM30 °FPassing clouds.9 mph86%29.92 "HgN/A
7:20 PM30 °FPassing clouds.9 mph86%29.92 "HgN/A
6:50 PM30 °FPassing clouds.9 mph86%29.92 "HgN/A
6:20 PM30 °FPassing clouds.8 mph93%29.95 "HgN/A
5:50 PM30 °FPassing clouds.7 mph93%29.95 "HgN/A
5:20 PM30 °FPassing clouds.9 mph93%29.95 "HgN/A
4:50 PM30 °FPassing clouds.9 mph93%29.95 "HgN/A
4:20 PM30 °FPassing clouds.9 mph93%29.95 "HgN/A
3:50 PM32 °FBroken clouds.8 mph93%29.95 "HgN/A
3:20 PM32 °FBroken clouds.8 mph93%29.95 "HgN/A
2:50 PM32 °FBroken clouds.7 mph93%29.95 "HgN/A
2:20 PM32 °FPartly sunny.8 mph93%29.98 "HgN/A
1:50 PM32 °FPartly sunny.8 mph93%29.98 "HgN/A
1:20 PM32 °FPartly sunny.7 mph93%29.98 "HgN/A
12:50 PM32 °FPartly sunny.7 mph93%29.98 "HgN/A
12:20 PM30 °FPartly sunny.8 mph100%30.01 "HgN/A
11:50 AM30 °FLow clouds.8 mph100%30.01 "HgN/A
11:20 AM30 °FLow clouds.6 mph100%30.01 "Hg5 mi
Weather by CustomWeather, © 2014

See weather overviewHow to use our weather pages